Location: Bougoudala
(13.2282°N, 4.9477°W)
Time: 23:20:53
(UTC+00:00)

Cosmos 1437 - Pass Details

Date: 29 January 2020
Orbit: 377 x 382 km, 81.2° (Epoch: 19 February)

Event Time Altitude Azimuth Distance (km) Brightness Sun altitude
Rises 18:40:09 0° 182° (S) 2,247 6.7 -5.7°
Reaches altitude 10° 18:42:08 10° 181° (S) 1,394 5.6 -6.2°
Maximum altitude 18:45:09 74° 96° (E) 399 2.5 -6.9°
Drops below altitude 10° 18:48:09 10° 10° (N) 1,390 5.1 -7.6°
Sets 18:50:08 0° 8° (N) 2,241 6.2 -8.1°
